TimeCST,TemperatureF,Dew PointF,Humidity,Sea Level PressureIn,VisibilityMPH,Wind Direction,Wind SpeedMPH,Gust SpeedMPH,PrecipitationIn,Events,Conditions,WindDirDegrees,DateUTC
12:00 AM,-39,-46,51,29.73,4,NW,23.0,,,Snow,Snow,310,2013-01-16 06:00:00
12:00 AM,-38.2,-45.4,67,29.73,4.0,NW,20.7,26.5,N/A,Snow,Ice Crystals,310,2013-01-16 06:00:00
1:00 AM,-36.4,-45.4,61,29.72,10.0,NW,19.6,27.6,N/A,Snow,Low Drifting Snow,320,2013-01-16 07:00:00
2:00 AM,-36.4,-43.6,67,29.73,8.0,NW,21.9,28.8,N/A,Snow,Low Drifting Snow,310,2013-01-16 08:00:00
2:46 AM,-9999,-9999,N/A,-9999,2.0,NW,25.3,32.2,N/A,,Ice Crystals,320,2013-01-16 08:46:00
3:00 AM,-34.6,-41.8,68,29.69,2.0,NW,26.5,33.4,N/A,Snow,Ice Crystals,320,2013-01-16 09:00:00
4:00 AM,-32.8,-41.8,62,29.70,1.8,NW,21.9,29.9,N/A,Snow,Ice Crystals,320,2013-01-16 10:00:00
5:00 AM,-31.0,-40.0,62,29.69,1.8,NNW,24.2,31.1,N/A,Snow,Ice Crystals,330,2013-01-16 11:00:00
6:00 AM,-31,-39,48,29.67,2,NW,31.1,,,Snow,Snow,320,2013-01-16 12:00:00
6:00 AM,-31.0,-38.2,68,29.67,1.8,NW,24.2,31.1,N/A,Snow,Ice Crystals,320,2013-01-16 12:00:00
7:00 AM,-29.2,-38.2,62,29.68,1.8,NW,20.7,28.8,N/A,Snow,Ice Crystals,320,2013-01-16 13:00:00
8:00 AM,-29.2,-36.4,68,29.68,3.0,NW,18.4,24.2,N/A,Snow,Ice Crystals,320,2013-01-16 14:00:00
9:00 AM,-27.4,-36.4,62,29.69,1.0,NW,21.9,-,N/A,Snow,Ice Crystals,320,2013-01-16 15:00:00
9:20 AM,-9999,-9999,N/A,-9999,0.5,NW,21.9,-,N/A,,Ice Crystals,320,2013-01-16 15:20:00
10:00 AM,-29.2,-36.4,68,29.68,0.5,NW,24.2,-,N/A,Snow,Ice Crystals,320,2013-01-16 16:00:00
11:00 AM,-27.4,-36.4,62,29.67,0.5,NW,24.2,-,N/A,Snow,Ice Crystals,320,2013-01-16 17:00:00
12:00 PM,-28,-36,46,29.66,19,NW,24.2,,,Snow,Snow,320,2013-01-16 18:00:00
12:00 PM,-29.2,-36.4,68,29.66,0.5,NW,24.2,-,N/A,Snow,Ice Crystals,320,2013-01-16 18:00:00
1:00 PM,-27.4,-34.6,69,29.66,0.4,WNW,24.2,-,N/A,Snow,Ice Crystals,300,2013-01-16 19:00:00
2:00 PM,-27.4,-34.6,69,29.65,0.4,NNW,25.3,-,N/A,Snow,Ice Crystals,330,2013-01-16 20:00:00
2:43 PM,-9999,-9999,N/A,-9999,0.2,NW,27.6,-,N/A,,Heavy Ice Crystals,320,2013-01-16 20:43:00
3:00 PM,-27.4,-36.4,62,29.65,0.2,NW,29.9,-,N/A,Snow,Heavy Ice Crystals,320,2013-01-16 21:00:00
4:00 PM,-27.4,-34.6,69,29.65,0.2,NW,25.3,-,N/A,Snow,Heavy Ice Crystals,320,2013-01-16 22:00:00
5:00 PM,-25.6,-32.8,69,29.65,0.5,NW,19.6,26.5,N/A,Snow,Ice Crystals,310,2013-01-16 23:00:00
6:00 PM,-23,-31,50,29.63,0,NNW,34.5,,,Snow,Snow,330,2013-01-17 00:00:00
6:00 PM,-23.8,-31.0,69,29.63,0.4,NNW,31.1,36.8,N/A,Snow,Ice Crystals,330,2013-01-17 00:00:00
7:00 PM,-22.0,-29.2,69,29.65,0.5,NW,23.0,28.8,N/A,Snow,Ice Crystals,310,2013-01-17 01:00:00
8:00 PM,-20.2,-29.2,63,29.62,0.4,NW,25.3,31.1,N/A,Snow,Ice Crystals,320,2013-01-17 02:00:00
9:00 PM,-20.2,-29.2,63,29.62,0.2,NNW,28.8,34.5,N/A,Snow,Heavy Ice Crystals,330,2013-01-17 03:00:00
10:00 PM,-20.2,-29.2,63,29.62,0.2,NNW,28.8,36.8,N/A,Snow,Heavy Ice Crystals,330,2013-01-17 04:00:00
11:00 PM,-20.2,-27.4,69,29.61,0.2,NNW,34.5,42.6,N/A,Snow,Heavy Ice Crystals,330,2013-01-17 05:00:00